TimePDT,TemperatureF,Dew PointF,Humidity,Sea Level PressureIn,VisibilityMPH,Wind Direction,Wind SpeedMPH,Gust SpeedMPH,PrecipitationIn,Events,Conditions,WindDirDegrees,DateUTC
12:58 AM,64.9,64.9,100,29.93,10.0,WNW,2.3,-,N/A,,Clear,300,2013-10-03 07:58:00
1:58 AM,65.7,65.7,100,29.94,10.0,NW,4.6,-,N/A,,Clear,320,2013-10-03 08:58:00
2:58 AM,64.9,64.9,100,29.93,10.0,NW,3.5,-,N/A,,Clear,310,2013-10-03 09:58:00
3:58 AM,64.4,64.4,100,29.91,10.0,WNW,2.3,-,N/A,,Clear,300,2013-10-03 10:58:00
4:58 AM,64.2,64.2,100,29.91,10.0,Calm,Calm,-,N/A,,Clear,0,2013-10-03 11:58:00
5:58 AM,62.1,62.1,100,29.91,10.0,WSW,2.3,-,N/A,,Clear,240,2013-10-03 12:58:00
6:58 AM,60.6,60.6,100,29.91,7.0,Calm,Calm,-,N/A,,Scattered Clouds,0,2013-10-03 13:58:00
7:58 AM,63.1,63.1,100,29.93,7.0,Calm,Calm,-,N/A,,Mostly Cloudy,0,2013-10-03 14:58:00
8:58 AM,66.9,63.7,89,29.94,10.0,Variable,3.5,-,N/A,,Scattered Clouds,0,2013-10-03 15:58:00
9:49 AM,69.8,59.0,68,29.93,10.0,ESE,3.5,-,N/A,,Mostly Cloudy,120,2013-10-03 16:49:00
9:58 AM,69.3,58.8,69,29.93,10.0,SSE,3.5,-,N/A,,Mostly Cloudy,160,2013-10-03 16:58:00
10:58 AM,70.0,58.3,66,29.92,10.0,SE,5.8,-,N/A,,Overcast,130,2013-10-03 17:58:00
11:58 AM,69.8,56.5,63,29.91,10.0,South,8.1,-,N/A,,Mostly Cloudy,190,2013-10-03 18:58:00
12:58 PM,73.8,53.4,49,29.89,10.0,SSW,10.4,-,N/A,,Scattered Clouds,200,2013-10-03 19:58:00
1:58 PM,73.6,55.9,54,29.87,10.0,SW,15.0,-,N/A,,Scattered Clouds,230,2013-10-03 20:58:00
2:58 PM,72.0,57.0,59,29.86,10.0,SSW,13.8,-,N/A,,Scattered Clouds,210,2013-10-03 21:58:00
3:58 PM,71.1,58.3,64,29.85,10.0,SW,12.7,-,N/A,,Partly Cloudy,220,2013-10-03 22:58:00
4:58 PM,69.8,59.5,70,29.84,10.0,South,10.4,-,N/A,,Partly Cloudy,190,2013-10-03 23:58:00
5:58 PM,67.1,62.4,85,29.85,10.0,SSW,8.1,-,N/A,,Partly Cloudy,210,2013-10-04 00:58:00
6:58 PM,64.6,64.6,100,29.85,10.0,SSW,8.1,-,N/A,,Partly Cloudy,200,2013-10-04 01:58:00
7:58 PM,63.7,63.7,100,29.86,10.0,South,3.5,-,N/A,,Partly Cloudy,190,2013-10-04 02:58:00
8:33 PM,64.4,64.4,100,29.86,10.0,South,3.5,-,N/A,,Mostly Cloudy,190,2013-10-04 03:33:00
9:58 PM,61.9,61.9,100,29.88,10.0,Calm,Calm,-,N/A,,Scattered Clouds,0,2013-10-04 04:58:00
10:33 PM,62.6,62.6,100,29.88,10.0,Calm,Calm,-,N/A,,Mostly Cloudy,0,2013-10-04 05:33:00
10:38 PM,62.6,62.6,100,29.88,10.0,Calm,Calm,-,N/A,,Mostly Cloudy,0,2013-10-04 05:38:00
10:58 PM,63.0,63.0,100,29.89,10.0,Calm,Calm,-,N/A,,Overcast,0,2013-10-04 05:58:00
11:18 PM,64.4,64.4,100,29.88,10.0,SE,2.3,-,N/A,,Overcast,140,2013-10-04 06:18:00
11:58 PM,64.9,64.9,100,29.89,10.0,SE,2.3,-,N/A,,Overcast,140,2013-10-04 06:58:00